星链-5921 (STARLINK-5921 )

导读

STARLINK-5921是美国SpaceX公司星链星座的组成卫星,于2023年3月17日发射升空。星链星座计划部署数万颗近地轨道卫星,旨在为全球提供高速宽带互联网接入服务,尤其能覆盖网络基础设施匮乏的地区。作为组网卫星之一,STARLINK-5921运行在近地轨道,承担着全球网络信号传输的任务,助力星链完成全球覆盖的组网目标,同时也推动了低轨卫星互联网的发展进程。

基本信息
目录编号:
55926
目录名称:
STARLINK-5921
国际标识:
2023-037N
轨道中心:
EARTH
卫星名称:
星链-5921
卫星全名:
星链-5921 (STARLINK-5921 )
卫星状态:
在轨 (已飞行1275 天)
发射日期:
2023-03-17 UTC
国别 :
美国 (US)
星等 :
--
该卫星已列入 空间交会检测服务 Space Conjunction Data Service (SCDS) ,当前飞行风险评估等级: 无高风险
轨道信息
数据来源 国际轨道数据
星历时间: 2026-09-12T12:38:16+0800
12小时前
查看轨道信息
半长轴: 6950.218km
偏心率: 0.0003072
轨道倾角: 70.000°
近地点辐角 269.211°
升交点赤经 174.336°
平近点角 90.869°
近地点: 569.945km
远地点: 574.217km
周期: 96.108分钟
每日圈数: 14.983219
详细信息
固有亮度:
5
最大亮度:
2.5
卫星平台:
Starlink v1.5
覆盖范围:
全球
运营商:
太空探索技术公司
运营商所在国:
美国
制造商(研发单位):
太空探索技术公司
制造商所在国:
美国
使用方式:
暂无
卫星简介
星链(Starlink)计划是由太空探索技术公司(SpaceX)提出的一个巨型低轨卫星互联网星座项目,计划在2019年至2024年间在太空搭建由约1.2万颗卫星组成的“星链”网络,其中1584颗将部署在地球上空550千米处的近地轨道,并从2020年开始工作。该卫星仍在工作。
2D轨道图
3D轨道图
轨道高度分析图
轨道倾角分析图
轨道综合分析图
查看轨道综合分析图
交会数据列表
事件ID 空间交会对象 最接近时刻(TCA) 交会距离 交会风险概率(CRP) 交会风险指数(CRI) 操作
CDM_260912-153205-592606-189822
OBJECT E (61898)
2026-09-12T
15:32:22+0000
2.293 km
极远距离
2.056388E-6 低风险 0.41
与全量物体交会距离演化趋势
与全量物体交会风险概率演化趋势